Temperature
15 16 16 16 16 16 16 15 15 15 16 16 15 15 16 15 15 15 15 15 15 15 15 15 15 15 15 15 15 15 15 15 15 15 15 15 14 14 14 14 14 14 14
16 16 16 16 16 16 16 15 15 15 15 15 15 15 15 15 15 15 15 15 15 15 15 15 15 15 15 15 15 15 15 15 15 15 15 14 14 14 14 14 14 14 14
16 16 16 16 15 15 15 15 15 15 15 15 15 15 15 15 15 15 15 15 15 15 15 15 15 15 14 14 14 15 15 15 15 15 15 14 14 14 14 14 14 14 14
16 16 16 15 15 15 15 15 15 15 15 15 15 15 15 15 15 15 15 15 15 15 15 15 15 15 14 14 14 14 14 14 14 14 14 14 14 13 13 13 13 13 13
16 16 16 15 15 15 15 15 15 15 15 15 15 15 15 15 15 15 15 15 15 15 15 15 15 15 14 14 14 14 14 14 14 14 14 14 14 13 13 13 13 13 13
16 16 16 15 15 15 15 15 15 15 15 15 15 15 15 15 15 15 15 15 15 15 15 15 15 14 14 14 14 14 14 14 14 14 14 14 13 13 13 13 13 13 13
16 15 15 15 15 15 15 15 15 15 14 14 14 14 14 14 15 14 14 14 14 14 15 15 14 14 14 14 14 14 13 14 14 14 13 13 13 13 13 13 13 13 13
15 15 15 15 15 15 15 15 15 14 14 14 14 14 14 14 14 14 14 14 14 14 14 14 14 14 14 14 14 14 13 13 13 13 13 13 13 13 13 13 13 13 13
15 15 15 14 14 14 14 14 14 14 14 14 14 14 14 14 14 14 14 14 14 14 14 14 14 14 14 14 14 14 13 13 13 13 13 13 13 13 13 12 12 12 12
14 14 14 14 14 14 14 14 14 14 14 14 14 14 14 14 14 14 14 14 14 14 14 14 14 14 14 14 14 13 13 13 13 13 13 13 13 13 13 12 12 12 12
14 14 14 14 14 14 14 14 14 14 14 14 14 14 14 14 14 14 14 14 14 14 14 14 13 13 13 13 13 13 13 13 13 13 13 13 13 13 13 12 12 12 12
13 13 13 13 13 13 13 13 13 13 13 13 13 13 13 13 13 13 13 13 13 13 13 13 13 13 13 13 13 13 13 13 13 13 13 13 12 12 12 12 12 12 12
13 13 13 13 13 13 13 13 13 13 13 13 13 13 13 13 13 13 13 13 13 13 13 13 13 13 13 13 13 13 13 13 13 13 13 12 12 12 12 12 12 12 12
13 13 12 13 13 13 13 13 13 13 13 13 13 13 13 13 13 13 13 13 13 13 13 13 13 13 13 12 13 13 13 12 12 12 12 12 12 12 12 12 12 12 11
12 12 12 12 12 12 12 12 12 12 12 12 12 12 12 13 13 13 13 13 12 12 12 12 12 12 12 12 12 12 12 12 12 12 12 12 12 12 12 12 11 11 11
12 12 12 12 12 12 12 12 12 12 12 12 12 12 12 12 12 12 12 12 12 12 12 12 12 12 12 12 12 12 12 12 12 12 12 12 12 12 12 11 11 11 11
11 12 11 11 11 11 11 11 11 11 11 11 11 11 11 12 12 12 12 12 12 12 12 11 11 11 11 11 12 12 12 12 12 12 12 12 12 12 11 11 11 11 11
11 11 11 11 11 11 11 11 11 11 11 11 11 11 11 11 11 11 11 11 11 11 11 11 11 11 11 11 11 11 11 11 11 11 11 11 11 11 11 11 11 11 11
10 10 10 10 10 10 11 11 10 10 10 10 10 10 10 10 10 11 11 11 11 11 10 10 10 10 10 10 11 11 11 11 11 11 11 11 11 11 11 11 11 11 11
10 10 10 10 10 10 10 10 10 10 10 10 10 10 10 10 10 10 10 10 10 10 10 10 10 10 10 10 10 10 10 10 10 10 10 11 11 11 11 10 10 10 10
9 9 9 9 9 9 9 9 9 9 9 9 9 9 9 9 9 9 9 10 10 10 10 10 9 9 9 9 9 9 10 10 10 10 10 10 10 10 10 10 10 10 10
9 9 9 9 9 9 9 9 9 9 9 9 9 9 9 9 9 9 9 9 9 9 9 9 9 9 9 9 9 9 9 9 9 10 10 10 10 10 10 10 10 10 10
8 8 8 8 8 8 8 8 8 8 8 8 8 8 8 8 8 8 8 8 8 8 9 9 9 8 8 8 8 8 8 8 9 9 9 9 9 9 9 9 9 9 9
8 8 8 8 8 8 8 8 8 8 8 8 8 8 8 8 8 8 8 8 8 8 8 8 8 8 8 8 8 8 8 8 8 8 8 9 9 9 9 9 9 9 9
7 7 7 7 7 7 7 7 7 7 7 7 7 7 7 7 7 7 7 7 7 7 7 7 7 7 7 7 7 7 7 7 8 8 8 8 8 8 8 8 8 8 8
6 6 6 6 6 6 6 6 6 6 6 6 7 7 7 7 7 7 7 7 7 7 7 7 7 7 7 7 7 7 7 7 7 7 7 7 8 8 8 8 8 8 8
Wind_Speed
4 7 10 10 10 11 12 12 12 12 12 12 13 13 14 14 15 15 14 14 14 14 14 15 15 15 15 16 16 16 16 16 16 17 17 16 16 16 16 15 15 14 16
7 9 12 11 11 11 11 12 12 11 12 12 13 13 13 13 13 13 13 13 13 13 14 14 14 14 14 15 15 15 15 15 15 16 15 15 15 15 15 15 14 13 14
10 10 11 12 11 11 11 11 11 11 11 11 12 12 12 12 12 12 12 12 12 13 13 13 13 13 13 13 14 14 14 14 15 15 14 13 13 14 14 14 14 14 13
10 10 11 12 12 11 11 11 10 10 11 12 12 12 12 12 12 11 11 11 11 12 11 12 12 12 12 12 12 13 13 13 13 13 11 11 10 12 13 13 13 13 13
9 10 11 13 12 11 11 10 10 10 10 11 12 12 11 11 11 11 10 10 10 10 10 11 11 11 11 11 11 12 12 12 12 11 11 10 9 11 12 11 11 11 11
8 9 11 13 12 11 11 10 10 10 10 11 11 11 11 10 10 10 10 10 10 10 10 10 10 10 10 9 10 10 11 11 11 10 10 9 8 10 10 10 10 11 11
8 9 10 12 11 11 10 10 10 9 9 10 10 10 10 10 10 10 10 10 10 9 9 9 9 9 8 9 9 9 10 10 10 9 8 7 8 9 9 9 9 10 10
8 8 10 10 10 10 10 9 9 9 9 9 9 9 9 9 10 10 9 9 9 9 8 8 8 8 8 8 8 8 8 8 8 7 6 7 8 9 9 9 9 9 9
8 7 7 8 9 9 9 8 8 8 8 8 8 8 8 8 9 9 9 9 9 9 8 8 7 7 7 7 7 7 7 8 8 6 6 6 7 8 8 8 8 8 7
6 6 6 6 7 7 7 7 7 7 7 7 7 8 8 8 8 8 8 9 9 8 7 7 7 6 6 6 6 6 6 6 6 6 5 6 7 7 7 7 7 7 7
5 4 5 5 5 6 6 6 6 6 6 7 6 7 7 7 7 7 8 8 8 8 7 7 6 5 6 6 5 5 5 5 5 5 5 6 7 6 7 6 6 6 7
5 4 3 4 5 5 5 5 5 5 5 5 5 6 6 6 6 6 7 8 8 7 7 7 6 5 4 4 4 4 4 4 4 4 5 6 6 6 6 6 6 6 6
5 4 3 4 4 4 4 4 4 4 4 4 5 5 6 6 5 5 5 5 6 6 5 6 5 4 3 4 4 3 4 4 3 4 5 6 7 7 6 7 6 6 6
4 3 3 3 4 4 4 3 4 3 3 3 4 5 5 4 3 3 3 4 4 4 4 4 3 3 3 4 5 4 4 4 4 4 4 6 7 7 7 7 7 6 6
3 2 2 3 3 3 3 3 3 3 3 4 4 5 5 4 3 3 3 4 4 5 4 4 3 3 2 3 4 4 4 4 5 5 4 6 7 7 7 7 7 7 6
3 2 2 2 3 3 3 2 2 3 3 3 3 4 6 5 4 4 3 3 4 5 5 5 5 3 2 3 3 4 4 4 5 5 5 6 7 8 7 7 7 7 7
2 2 2 3 3 2 2 2 2 2 3 3 3 3 4 5 5 5 3 3 4 4 5 4 4 3 2 2 2 3 4 4 4 5 5 6 6 7 8 9 8 8 7
2 2 1 2 2 2 2 1 1 2 2 2 3 3 3 4 5 4 4 3 4 4 3 3 3 2 2 2 2 2 3 3 5 5 6 6 7 7 8 9 9 8 8
2 2 1 1 2 1 1 1 1 1 1 2 2 2 2 3 4 4 3 3 4 3 3 2 2 2 2 2 2 2 2 3 4 5 5 6 7 7 8 8 8 8 8
1 1 1 1 1 1 1 1 0 0 1 1 1 2 2 2 3 3 3 3 3 2 2 2 2 2 2 2 2 2 2 3 3 4 5 6 6 8 8 8 7 7 8
1 2 1 1 0 1 0 0 1 1 1 1 1 1 2 2 2 2 2 2 3 3 3 3 2 2 1 1 0 2 3 3 3 4 4 4 5 7 8 9 8 7 7
1 1 1 1 0 0 0 1 1 1 1 1 1 1 2 2 2 2 2 3 3 2 3 3 3 2 1 1 2 1 2 3 3 4 3 4 5 5 6 8 9 8 8
1 0 0 0 0 0 0 0 1 1 1 0 1 1 2 2 2 2 3 3 3 3 4 4 4 4 3 2 2 2 2 3 2 2 3 4 4 4 5 6 7 9 9
1 0 1 1 1 1 0 1 1 1 2 2 2 2 2 2 3 3 3 3 4 4 4 4 4 3 4 3 3 2 2 2 2 2 2 3 4 5 5 6 7 8 9
1 0 1 1 1 1 1 1 1 2 2 2 2 2 2 3 3 3 3 3 3 4 4 4 4 4 4 4 3 2 2 2 2 2 4 3 3 4 5 6 7 7 9
1 1 1 2 2 1 1 1 1 2 2 2 2 3 2 2 2 3 3 3 4 3 4 4 5 5 5 4 4 3 3 2 3 3 4 4 5 4 4 5 6 7 8
Wind_Direction
161 163 142 137 132 131 128 126 121 117 116 116 112 110 108 107 106 105 104 101 100 101 99 97 94 92 91 91 90 89 87 85 84 83 83 84 84 85 82 79 77 75 80
154 153 141 135 131 129 127 127 124 121 120 120 117 115 113 111 109 108 107 105 103 103 102 99 97 96 95 94 92 90 88 88 89 86 83 83 84 85 85 82 79 80 81
138 140 139 137 132 127 126 124 125 125 125 124 123 120 118 117 114 110 109 110 108 106 104 102 100 99 98 97 94 92 90 90 92 89 82 78 83 86 86 84 82 81 83
134 134 137 137 134 129 129 127 124 128 131 130 127 124 122 120 118 116 114 113 113 111 109 107 105 102 101 100 97 95 91 91 90 90 81 79 82 87 88 86 85 83 82
126 132 139 135 133 131 129 129 128 130 131 134 130 127 126 125 122 121 120 118 115 115 115 113 109 106 103 102 100 98 95 91 89 91 87 85 85 90 89 89 89 86 83
124 129 138 137 134 132 129 128 127 130 132 133 134 134 132 132 130 129 127 124 121 119 121 121 115 110 106 104 103 101 100 97 92 93 91 91 92 96 94 92 92 89 88
127 128 136 136 136 132 130 129 128 129 130 132 134 135 138 138 136 135 133 130 127 127 126 126 125 118 112 108 107 106 104 102 98 99 98 99 103 103 100 98 97 93 90
130 127 134 134 132 132 132 131 132 132 128 131 136 137 136 141 140 139 138 136 135 136 136 136 130 127 124 120 115 114 107 104 101 104 108 111 114 111 107 104 103 99 94
123 122 123 131 136 136 136 133 134 135 131 131 137 139 138 139 145 145 145 145 143 145 145 145 141 132 136 135 129 121 113 109 106 112 120 127 126 120 115 110 108 105 101
117 117 119 123 129 135 138 135 135 138 135 133 136 140 141 142 146 150 152 152 152 153 155 156 152 146 149 145 138 128 119 113 113 117 128 142 139 131 126 122 118 116 113
123 124 124 123 122 129 137 138 134 137 139 138 139 141 143 144 148 156 160 159 161 164 164 164 161 156 159 150 143 135 127 121 125 126 142 153 152 148 143 139 135 128 123
152 155 145 139 133 130 136 137 134 136 138 138 142 145 147 149 154 160 166 169 171 174 177 175 170 165 159 152 151 145 140 140 137 148 161 163 161 162 159 154 151 147 138
159 159 162 153 143 136 128 134 135 138 138 139 143 149 150 148 151 156 162 172 179 181 179 180 177 177 167 166 168 167 166 162 157 164 176 177 173 173 167 161 157 155 151
141 154 161 155 146 143 137 141 143 141 144 146 161 156 144 143 153 160 166 175 177 183 179 173 180 192 185 185 182 180 178 177 175 176 184 185 184 184 179 172 169 167 163
140 156 158 148 151 151 142 147 150 161 163 170 169 171 165 154 164 171 177 176 180 183 185 184 186 192 200 194 194 187 185 187 186 185 192 195 195 194 191 190 187 181 177
148 147 161 150 142 142 153 157 156 162 165 164 172 182 179 171 171 171 177 185 189 193 196 196 190 186 196 187 196 191 187 188 191 193 200 203 202 201 200 198 195 193 191
156 144 148 152 133 133 154 163 150 155 158 164 173 178 176 178 178 174 175 187 197 199 197 190 187 177 181 187 203 200 189 192 196 199 200 201 204 207 206 204 204 202 201
126 121 120 133 127 133 141 158 152 159 165 177 174 173 176 179 179 174 177 192 196 185 180 179 178 180 194 199 217 227 206 196 208 208 203 201 201 203 207 208 210 212 212
143 141 119 112 121 123 120 128 156 166 167 179 169 168 170 169 176 177 182 188 180 175 179 184 182 180 191 204 225 240 237 219 210 205 202 203 202 204 203 209 213 217 219
141 132 143 130 103 86 74 68 71 167 197 167 184 181 168 172 176 174 180 186 172 171 188 184 186 186 186 196 238 271 271 256 224 208 210 207 206 206 205 205 207 218 225
71 88 121 113 44 92 84 166 205 225 221 220 216 195 187 179 176 179 183 189 184 189 191 184 182 173 195 168 127 307 295 272 255 234 215 203 206 207 203 205 208 214 225
100 97 101 129 182 196 242 240 221 220 215 223 246 268 230 204 197 202 189 206 203 194 186 185 172 179 210 185 159 179 287 299 277 249 227 213 213 205 205 211 213 215 223
94 297 308 294 248 270 296 53 34 52 33 274 246 237 256 241 227 221 211 205 207 199 201 201 191 186 204 224 202 184 199 235 281 278 241 225 215 210 213 211 216 220 224
249 331 5 350 334 335 63 157 187 220 247 239 230 229 259 253 246 234 229 221 212 211 208 208 207 208 195 213 234 241 231 194 208 267 283 253 229 223 225 223 221 222 226
186 53 5 1 358 349 344 228 215 233 243 262 270 236 236 248 247 237 233 227 224 223 216 212 212 214 209 210 209 218 234 249 218 219 260 276 266 240 230 225 221 221 226
77 49 25 16 340 333 326 273 227 233 236 239 260 250 243 245 250 248 239 227 226 229 224 224 220 217 219 219 219 211 207 212 216 212 237 256 265 259 242 228 222 221 224
Height
1525 1526 1528 1529 1530 1531 1532 1533 1534 1535 1535 1536 1537 1537 1538 1538 1538 1539 1539 1540 1540 1540 1540 1540 1541 1541 1541 1541 1541 1541 1541 1542 1542 1542 1542 1542 1542 1543 1543 1543 1543 1543 1543
1524 1526 1528 1529 1530 1531 1532 1533 1534 1535 1536 1537 1537 1538 1538 1539 1539 1540 1540 1541 1541 1541 1542 1542 1542 1542 1542 1543 1543 1543 1543 1543 1543 1543 1544 1544 1544 1544 1544 1544 1545 1545 1545
1524 1526 1527 1529 1530 1531 1533 1534 1535 1535 1536 1537 1538 1538 1539 1539 1540 1540 1541 1541 1542 1542 1543 1543 1543 1543 1544 1544 1544 1544 1544 1544 1544 1545 1545 1545 1545 1546 1546 1546 1546 1546 1546
1524 1526 1527 1529 1530 1531 1533 1534 1535 1536 1536 1537 1538 1538 1539 1540 1540 1541 1541 1542 1542 1543 1543 1544 1544 1544 1545 1545 1545 1545 1545 1546 1546 1546 1546 1546 1546 1547 1547 1547 1547 1547 1547
1524 1526 1527 1529 1530 1531 1533 1534 1535 1535 1536 1537 1538 1539 1539 1540 1540 1541 1542 1542 1543 1543 1544 1544 1545 1545 1546 1546 1546 1547 1547 1547 1547 1547 1547 1547 1547 1548 1548 1548 1548 1548 1548
1524 1526 1527 1529 1530 1531 1533 1534 1535 1535 1536 1537 1538 1539 1539 1540 1541 1541 1542 1542 1543 1544 1544 1545 1545 1546 1546 1547 1547 1547 1548 1548 1548 1548 1548 1548 1548 1549 1549 1549 1549 1549 1549
1524 1526 1527 1529 1530 1531 1532 1533 1534 1535 1536 1537 1538 1539 1539 1540 1541 1541 1542 1543 1543 1544 1544 1545 1546 1546 1547 1547 1548 1548 1548 1548 1549 1549 1549 1549 1549 1549 1549 1549 1549 1550 1550
1524 1525 1527 1528 1530 1531 1532 1533 1534 1535 1536 1537 1538 1538 1539 1540 1540 1541 1542 1542 1543 1544 1544 1545 1546 1546 1547 1547 1548 1548 1549 1549 1549 1549 1550 1550 1550 1550 1550 1550 1550 1550 1550
1524 1525 1526 1528 1529 1530 1531 1532 1533 1534 1535 1536 1537 1538 1539 1539 1540 1541 1541 1542 1543 1543 1544 1545 1545 1546 1546 1547 1548 1548 1548 1549 1549 1549 1550 1550 1550 1550 1550 1550 1550 1550 1550
1523 1525 1526 1527 1528 1530 1531 1532 1533 1534 1534 1535 1536 1537 1538 1539 1539 1540 1541 1541 1542 1543 1544 1544 1545 1545 1546 1547 1547 1548 1548 1548 1549 1549 1550 1550 1550 1550 1550 1550 1550 1550 1550
1523 1524 1525 1526 1527 1529 1530 1531 1532 1533 1533 1534 1535 1536 1537 1538 1538 1539 1540 1540 1541 1542 1543 1543 1544 1545 1545 1546 1547 1547 1548 1548 1549 1549 1549 1550 1550 1550 1550 1550 1550 1550 1550
1521 1523 1524 1525 1526 1527 1528 1529 1530 1531 1532 1533 1534 1535 1535 1536 1537 1538 1538 1539 1540 1541 1541 1542 1543 1544 1545 1545 1546 1547 1547 1547 1548 1548 1549 1549 1549 1549 1549 1549 1549 1549 1549
1519 1521 1522 1523 1525 1526 1527 1528 1529 1530 1531 1531 1532 1533 1534 1534 1535 1536 1537 1537 1538 1539 1540 1541 1542 1542 1543 1544 1545 1545 1546 1546 1547 1547 1548 1548 1548 1549 1549 1549 1549 1549 1548
1518 1519 1520 1522 1523 1524 1525 1526 1527 1528 1529 1529 1530 1531 1531 1532 1533 1534 1534 1535 1536 1537 1538 1539 1540 1541 1541 1542 1543 1544 1544 1545 1545 1546 1547 1547 1547 1548 1548 1548 1547 1547 1547
1516 1517 1518 1520 1521 1522 1523 1524 1525 1525 1526 1527 1528 1529 1529 1530 1530 1531 1532 1533 1534 1535 1535 1536 1537 1538 1539 1540 1541 1542 1542 1543 1544 1544 1545 1545 1546 1546 1546 1546 1546 1546 1546
1514 1515 1516 1518 1519 1520 1521 1521 1522 1523 1524 1525 1525 1526 1527 1528 1528 1529 1529 1530 1531 1532 1533 1534 1535 1536 1537 1538 1538 1539 1540 1541 1541 1542 1542 1543 1543 1544 1544 1545 1545 1544 1544
1512 1513 1514 1515 1516 1517 1518 1519 1520 1521 1521 1522 1523 1524 1524 1525 1526 1526 1527 1527 1528 1529 1530 1531 1532 1533 1534 1535 1535 1536 1537 1538 1539 1539 1540 1540 1541 1541 1542 1542 1543 1542 1542
1510 1511 1512 1513 1513 1514 1515 1516 1517 1518 1518 1519 1520 1521 1522 1522 1523 1523 1524 1525 1526 1526 1527 1528 1529 1530 1530 1531 1532 1533 1534 1535 1536 1536 1537 1537 1538 1539 1539 1540 1540 1540 1540
1507 1508 1509 1510 1510 1511 1512 1513 1514 1514 1515 1516 1517 1518 1518 1519 1520 1520 1521 1522 1523 1523 1524 1525 1526 1526 1527 1528 1529 1529 1530 1531 1532 1532 1533 1534 1534 1535 1536 1537 1537 1537 1537
1505 1506 1506 1507 1508 1508 1509 1510 1511 1511 1512 1512 1513 1514 1515 1516 1517 1517 1518 1519 1519 1520 1520 1522 1522 1523 1524 1525 1525 1526 1526 1527 1527 1528 1529 1530 1531 1531 1532 1533 1534 1534 1534
1503 1503 1504 1504 1504 1505 1506 1506 1506 1507 1508 1509 1509 1510 1511 1512 1513 1514 1514 1515 1516 1516 1517 1518 1519 1519 1520 1521 1522 1522 1522 1523 1523 1524 1525 1525 1526 1527 1528 1529 1530 1530 1530
1500 1500 1501 1501 1501 1502 1502 1503 1503 1504 1504 1505 1506 1507 1508 1509 1509 1510 1510 1511 1512 1513 1513 1514 1515 1516 1516 1517 1518 1518 1518 1520 1519 1520 1520 1521 1522 1523 1524 1525 1526 1526 1527
1497 1498 1498 1498 1499 1499 1499 1500 1500 1500 1501 1502 1502 1503 1504 1505 1505 1506 1507 1507 1508 1509 1509 1510 1511 1512 1513 1514 1515 1516 1516 1515 1515 1515 1515 1516 1517 1518 1519 1520 1521 1522 1522
1494 1495 1495 1496 1496 1496 1496 1496 1496 1496 1496 1497 1498 1499 1500 1501 1501 1502 1503 1503 1504 1504 1505 1506 1507 1508 1509 1510 1511 1512 1513 1512 1512 1511 1511 1512 1512 1513 1514 1515 1516 1516 1517
1492 1492 1493 1493 1493 1493 1493 1493 1493 1493 1493 1494 1494 1495 1496 1496 1497 1498 1498 1499 1500 1500 1501 1501 1502 1504 1504 1505 1506 1507 1508 1508 1508 1508 1507 1507 1508 1508 1509 1510 1510 1511 1511
1489 1489 1489 1490 1490 1490 1490 1490 1489 1490 1490 1490 1490 1491 1491 1492 1493 1494 1494 1495 1495 1496 1496 1497 1498 1499 1500 1501 1502 1502 1503 1503 1503 1504 1503 1502 1502 1503 1503 1504 1505 1505 1506